Wind_Speed
25 27 27 28 27 27 28 29 30 30 30 31 32 32 33 34 34 35 36 37 38 39 40 41 40 39 40 41 41 41 40 39 40 40 40 40 40 39 39 40 40 39 38
23 25 26 27 27 27 27 28 29 30 31 31 32 33 33 33 33 35 36 37 38 38 39 40 41 41 42 42 42 41 41 40 39 40 41 41 40 40 40 40 40 40 40
22 22 23 25 25 25 26 27 29 30 30 31 32 33 33 34 34 35 36 37 38 39 39 40 41 42 41 42 42 42 41 42 42 40 41 41 41 40 40 41 41 42 42
23 22 23 24 24 25 26 28 28 29 29 29 30 31 33 35 35 35 36 36 38 39 40 40 41 41 41 41 41 42 42 42 42 43 42 42 42 41 40 42 43 43 43
24 24 24 23 24 25 26 28 29 29 29 30 31 32 32 34 35 35 36 37 37 38 39 40 41 41 41 41 41 42 41 41 42 42 42 42 43 43 43 43 44 44 44
25 25 24 24 24 24 26 27 28 29 29 31 31 32 32 33 33 34 34 36 37 37 38 38 40 40 41 41 41 42 43 41 41 41 42 43 42 43 44 43 43 44 44
25 25 25 25 25 25 25 26 28 29 30 31 31 32 32 32 32 32 33 35 36 36 37 38 39 40 40 40 41 42 44 44 43 43 42 42 42 42 43 44 43 44 45
25 25 25 26 26 26 25 26 27 28 29 30 31 32 32 33 33 32 33 34 35 36 37 38 38 39 40 41 41 42 43 44 45 45 44 42 42 42 42 44 44 45 45
25 25 25 26 27 27 26 26 27 28 29 30 30 31 31 32 33 33 34 34 35 35 37 38 39 39 40 42 42 42 42 42 43 44 44 44 43 42 42 43 43 44 45
26 26 26 26 27 28 28 27 27 28 30 30 31 31 31 33 34 34 35 36 37 38 38 39 40 40 40 42 42 42 42 42 42 43 44 45 45 45 44 44 44 44 46
27 27 27 27 28 29 28 27 27 28 30 31 32 32 32 33 34 35 36 37 37 38 40 41 41 41 40 41 42 41 42 43 43 43 44 45 45 45 44 44 44 44 46
27 28 27 27 28 28 28 28 28 28 29 31 33 34 33 33 34 35 36 37 36 37 38 40 41 41 41 42 42 42 43 43 43 43 43 43 44 45 45 45 45 45 46
29 29 29 29 28 29 28 29 28 28 29 30 31 33 33 32 33 34 35 36 36 37 37 38 39 40 41 41 42 42 42 42 43 43 44 44 44 46 47 47 47 47 47
29 29 29 29 29 29 29 29 29 29 28 29 30 32 32 32 32 33 35 35 35 36 37 38 39 39 40 41 41 42 43 43 43 44 44 44 45 46 46 47 48 48 48
31 31 31 31 30 30 30 30 30 29 30 30 30 32 33 33 33 34 34 35 35 35 36 37 38 39 40 41 41 43 44 44 45 45 45 46 46 47 48 48 49 50 49
33 33 33 32 32 32 31 31 31 31 31 31 32 32 33 33 34 34 34 35 35 35 35 35 37 39 40 41 42 43 45 45 46 47 47 48 49 49 49 49 50 51 51
34 34 34 34 34 33 33 33 33 32 33 33 33 34 34 34 33 33 34 35 35 35 36 36 37 38 39 40 41 42 43 44 46 47 48 48 49 50 50 49 50 51 51
34 35 35 35 35 35 34 34 34 34 34 35 35 36 36 36 35 35 35 34 35 36 36 37 37 37 38 40 41 42 43 44 46 47 48 49 49 49 50 50 51 51 52
34 34 34 35 35 35 35 35 35 36 36 36 36 36 36 36 36 36 36 36 36 37 37 38 38 38 38 39 41 43 44 44 45 47 48 49 49 49 50 50 51 52 53
34 35 35 35 35 35 36 36 36 37 37 37 36 37 36 36 36 36 37 37 37 37 38 38 39 39 39 40 41 43 44 45 46 47 47 48 48 49 49 49 50 51 52
35 35 35 35 35 35 36 36 36 36 36 36 37 37 37 37 37 37 37 38 38 38 38 39 40 40 41 41 42 43 44 44 45 45 45 46 47 48 48 49 49 49 50
36 36 35 36 36 36 36 36 36 36 36 36 36 36 36 36 37 37 38 39 39 39 39 39 40 40 41 42 43 44 44 43 43 44 45 45 46 46 46 47 47 48 48
37 37 37 37 37 36 36 36 36 36 35 34 34 35 35 36 36 36 36 37 38 38 39 39 39 40 41 41 42 42 43 43 44 44 44 44 45 45 45 46 47 47 47
37 37 37 36 36 35 35 35 35 35 35 34 34 34 34 34 35 35 35 36 37 38 38 39 40 40 40 41 41 41 42 42 43 43 43 44 44 45 45 46 46 46 46
36 36 36 35 35 34 34 35 35 35 35 35 35 34 34 33 34 34 35 36 37 38 39 39 40 39 40 40 40 41 41 42 43 43 43 44 44 44 44 44 45 46 46
32 33 33 33 33 34 34 35 35 35 35 35 34 34 33 33 34 34 35 36 37 38 39 39 39 39 39 39 39 40 40 40 41 42 42 43 43 43 43 43 44 45 46
Wind_Direction
273 267 262 258 259 258 254 250 247 247 249 250 250 250 250 250 249 249 249 249 247 245 245 245 244 243 243 243 244 245 247 249 249 249 249 250 251 252 252 251 250 251 253
275 269 263 260 259 259 255 253 249 249 249 251 250 251 251 249 250 251 250 249 248 245 245 245 246 247 246 246 246 247 248 249 250 250 250 251 251 251 252 252 250 251 252
276 270 263 259 257 260 257 256 256 251 251 251 251 251 251 250 250 251 251 250 248 246 246 247 247 249 249 249 248 249 249 250 251 251 251 251 251 251 252 252 251 252 252
274 270 265 262 261 262 258 257 258 253 252 252 252 252 253 252 252 252 252 251 249 247 247 248 247 248 249 250 251 250 250 251 252 253 254 253 252 252 251 252 252 252 253
274 269 267 267 264 262 261 260 260 255 255 255 253 253 255 256 255 253 253 252 251 249 248 248 247 247 249 250 251 251 251 251 252 253 253 253 253 252 253 254 254 254 255
272 270 268 267 268 266 264 263 260 257 258 258 256 255 256 256 255 256 255 254 252 250 251 250 250 249 249 251 252 252 250 250 251 252 253 252 253 253 253 254 254 255 255
269 270 270 269 268 267 267 264 261 259 259 260 258 257 257 256 256 256 256 254 252 252 252 251 251 250 251 252 252 252 251 252 252 253 254 255 255 255 255 254 254 255 255
269 269 269 269 268 268 268 266 262 260 261 260 259 258 258 257 255 256 256 254 252 252 252 252 251 251 251 253 254 253 252 253 254 254 255 256 255 256 257 255 255 256 256
269 269 268 266 267 268 269 267 263 261 261 261 260 259 258 257 256 256 256 255 253 253 254 253 252 253 254 253 254 253 253 254 255 255 255 256 256 256 257 257 257 257 256
268 267 268 267 267 267 269 266 264 263 262 261 260 260 260 259 257 257 257 257 256 256 256 256 255 256 255 254 254 253 252 253 253 254 255 256 256 257 258 258 258 257 257
269 268 269 268 268 268 268 267 265 264 262 261 261 261 262 261 259 258 257 257 257 257 257 258 258 258 256 256 255 254 253 252 254 255 256 256 257 258 258 258 258 258 258
268 269 269 270 270 268 267 267 266 265 264 262 262 262 262 262 261 260 258 257 257 259 259 258 259 258 256 256 256 256 254 253 254 255 255 256 258 258 257 257 258 259 260
266 268 268 269 270 269 269 268 269 268 266 265 263 262 262 262 262 262 260 258 258 259 260 260 259 258 256 256 256 256 255 254 254 254 255 257 258 258 258 259 259 261 262
265 266 267 269 270 271 270 269 269 269 268 266 264 264 263 262 263 263 262 261 260 260 260 260 258 258 257 257 257 257 257 256 256 256 257 258 258 258 259 260 261 263 265
265 266 268 270 271 271 272 270 268 268 268 267 265 265 265 263 263 264 265 264 262 261 260 260 259 258 257 257 258 259 259 259 259 258 259 260 259 259 261 262 263 264 265
264 266 268 269 270 270 272 271 269 268 268 268 268 268 267 265 264 264 264 264 263 263 262 262 261 261 261 259 259 259 259 260 260 261 261 261 262 262 264 264 264 265 265
264 265 267 268 269 269 270 271 269 269 269 270 270 269 268 267 264 263 264 264 263 263 263 264 264 264 263 261 261 261 261 261 262 262 262 262 263 265 264 263 264 265 266
264 264 266 268 270 271 271 271 271 271 272 272 271 270 269 268 266 265 263 264 265 265 265 265 265 265 264 263 262 263 263 262 263 263 263 263 264 265 264 264 265 266 267
264 264 265 267 270 271 271 271 271 271 272 272 272 271 271 268 266 265 265 266 267 266 266 267 267 267 266 264 265 265 265 265 265 264 264 264 264 265 265 266 266 267 267
266 266 267 268 270 271 272 273 273 271 271 271 270 270 270 268 267 266 267 268 268 267 268 268 267 266 266 266 267 267 267 267 266 265 265 266 266 266 266 267 268 267 267
266 267 269 269 270 271 272 273 273 272 272 271 270 270 269 269 268 267 267 267 268 268 268 268 268 268 268 267 267 268 268 268 267 267 267 267 266 266 266 267 267 268 268
268 269 269 270 270 271 271 271 272 272 271 271 271 270 269 268 268 267 267 267 267 268 267 267 268 268 268 268 268 268 268 268 269 268 267 267 267 266 266 267 268 268 267
269 270 270 271 271 272 272 271 272 272 272 272 272 271 269 269 268 267 268 268 268 268 268 269 269 270 269 269 269 268 267 267 269 269 269 268 267 268 267 267 267 267 267
270 271 271 271 272 272 272 272 272 272 272 271 272 272 271 270 269 268 269 270 270 270 271 272 272 272 271 270 269 268 268 269 269 270 270 269 269 270 269 268 267 267 267
271 271 271 272 271 271 271 271 272 272 272 271 272 271 270 270 270 270 271 272 273 273 273 273 274 274 273 271 271 270 270 270 270 270 270 270 270 270 269 268 268 268 268
271 271 272 271 271 271 270 270 270 271 271 271 271 270 269 269 270 271 272 273 274 274 274 273 274 274 273 272 271 270 271 270 270 270 270 271 270 269 269 269 269 269 269
Height
5713 5712 5712 5712 5712 5713 5714 5716 5718 5720 5722 5724 5726 5728 5729 5730 5732 5734 5735 5736 5738 5741 5743 5746 5749 5751 5754 5756 5758 5761 5763 5765 5766 5768 5770 5771 5773 5774 5775 5777 5779 5781 5783
5706 5705 5705 5705 5706 5706 5707 5709 5711 5713 5714 5716 5718 5720 5721 5722 5724 5725 5726 5728 5729 5732 5734 5737 5739 5741 5744 5746 5749 5751 5753 5755 5756 5758 5760 5762 5764 5764 5766 5768 5769 5771 5773
5700 5699 5699 5699 5699 5700 5702 5703 5704 5706 5707 5708 5710 5711 5713 5714 5715 5716 5718 5719 5720 5722 5725 5727 5729 5731 5734 5736 5739 5741 5743 5745 5746 5748 5750 5752 5753 5755 5757 5758 5760 5762 5764
5694 5693 5693 5693 5693 5694 5695 5696 5696 5698 5699 5700 5702 5703 5705 5706 5707 5708 5709 5710 5711 5713 5715 5718 5720 5722 5724 5726 5728 5731 5732 5734 5736 5738 5740 5742 5744 5745 5748 5749 5751 5752 5754
5687 5688 5687 5688 5688 5688 5689 5689 5689 5690 5692 5693 5694 5695 5696 5697 5698 5698 5699 5701 5702 5704 5706 5708 5710 5712 5714 5716 5719 5720 5722 5724 5726 5728 5730 5732 5733 5735 5737 5739 5741 5743 5744
5681 5681 5681 5681 5682 5682 5682 5682 5682 5683 5684 5685 5686 5687 5688 5688 5689 5690 5691 5692 5693 5695 5696 5698 5700 5702 5704 5707 5709 5710 5712 5714 5716 5718 5720 5722 5724 5725 5727 5729 5731 5733 5735
5674 5674 5674 5675 5675 5675 5675 5675 5675 5676 5677 5677 5678 5679 5680 5680 5681 5681 5682 5683 5684 5686 5687 5689 5690 5693 5695 5696 5698 5700 5702 5704 5706 5708 5710 5711 5713 5715 5716 5718 5720 5722 5724
5668 5668 5668 5668 5668 5668 5668 5668 5668 5669 5669 5670 5670 5671 5671 5672 5673 5673 5674 5675 5676 5677 5678 5679 5681 5683 5685 5686 5688 5690 5692 5694 5696 5697 5699 5701 5703 5705 5706 5708 5710 5711 5713
5661 5661 5661 5661 5661 5661 5661 5661 5661 5661 5661 5661 5662 5662 5663 5663 5664 5665 5665 5666 5667 5668 5670 5671 5672 5673 5674 5676 5677 5679 5681 5683 5685 5687 5688 5690 5692 5694 5696 5697 5699 5701 5702
5654 5654 5654 5654 5654 5654 5653 5654 5653 5653 5653 5653 5653 5654 5654 5655 5655 5656 5657 5657 5658 5659 5661 5661 5662 5663 5664 5666 5667 5668 5670 5672 5674 5675 5677 5680 5681 5683 5685 5686 5688 5689 5691
5646 5647 5646 5646 5646 5646 5645 5645 5645 5645 5645 5645 5645 5645 5645 5646 5646 5647 5647 5648 5648 5650 5650 5651 5652 5652 5654 5655 5656 5658 5659 5661 5663 5664 5666 5668 5670 5672 5673 5675 5676 5677 5678
5639 5639 5639 5638 5638 5638 5637 5637 5637 5637 5637 5636 5636 5636 5636 5636 5636 5637 5637 5638 5638 5639 5640 5641 5641 5642 5643 5645 5646 5647 5648 5650 5652 5653 5655 5656 5658 5659 5661 5663 5664 5665 5666
5630 5630 5631 5630 5630 5629 5629 5629 5629 5629 5628 5628 5627 5627 5627 5627 5627 5627 5627 5628 5628 5629 5630 5630 5631 5632 5633 5634 5635 5637 5638 5639 5641 5642 5643 5645 5646 5648 5649 5650 5652 5653 5653
5622 5622 5622 5622 5621 5621 5620 5620 5620 5619 5619 5619 5619 5618 5618 5618 5618 5618 5618 5618 5619 5619 5620 5620 5621 5622 5622 5624 5625 5626 5627 5629 5630 5631 5632 5633 5634 5635 5636 5638 5639 5639 5640
5612 5613 5613 5613 5613 5612 5612 5611 5611 5611 5610 5610 5610 5609 5609 5608 5608 5608 5608 5608 5609 5609 5610 5610 5611 5611 5612 5613 5614 5615 5616 5618 5619 5619 5620 5621 5622 5623 5624 5625 5625 5626 5626
5603 5603 5603 5603 5603 5603 5603 5603 5602 5602 5601 5601 5600 5600 5599 5599 5599 5599 5599 5599 5599 5600 5600 5600 5601 5601 5602 5603 5603 5604 5605 5606 5607 5608 5608 5609 5610 5610 5611 5611 5612 5612 5613
5593 5593 5593 5593 5594 5594 5593 5593 5592 5592 5591 5591 5591 5590 5590 5589 5589 5589 5589 5589 5590 5590 5590 5591 5591 5591 5591 5591 5592 5592 5593 5594 5594 5595 5596 5596 5597 5597 5597 5598 5598 5598 5598
5583 5583 5583 5583 5583 5583 5583 5583 5582 5582 5581 5581 5580 5580 5579 5579 5579 5579 5579 5579 5580 5580 5580 5580 5580 5580 5581 5581 5581 5581 5581 5582 5582 5582 5583 5583 5583 5583 5583 5584 5584 5584 5585
5572 5573 5573 5573 5573 5573 5573 5573 5572 5571 5571 5570 5569 5569 5569 5569 5569 5569 5569 5569 5569 5570 5570 5570 5570 5570 5570 5570 5570 5569 5569 5569 5570 5570 5570 5569 5570 5570 5570 5570 5570 5570 5570
5561 5562 5562 5562 5562 5562 5562 5562 5561 5561 5560 5559 5559 5558 5558 5558 5558 5558 5558 5558 5559 5559 5559 5559 5559 5559 5559 5559 5558 5557 5557 5557 5557 5557 5556 5556 5556 5556 5555 5555 5555 5556 5556
5551 5551 5551 5551 5551 5551 5551 5551 5550 5550 5549 5549 5548 5548 5548 5547 5547 5548 5548 5548 5548 5548 5548 5548 5548 5547 5547 5546 5546 5545 5544 5544 5543 5543 5543 5543 5543 5542 5542 5541 5541 5541 5541
5539 5540 5540 5540 5539 5539 5539 5539 5539 5538 5538 5538 5537 5537 5537 5537 5537 5537 5537 5537 5537 5537 5536 5536 5536 5535 5534 5534 5533 5532 5532 5531 5530 5530 5530 5530 5529 5528 5528 5528 5527 5527 5527
5528 5528 5528 5528 5528 5527 5527 5528 5528 5527 5527 5527 5526 5526 5526 5526 5526 5526 5526 5526 5526 5525 5525 5525 5524 5523 5522 5521 5520 5520 5519 5518 5518 5517 5517 5516 5515 5515 5515 5514 5513 5513 5513
5516 5516 5517 5517 5516 5516 5516 5516 5516 5516 5516 5516 5516 5515 5515 5515 5515 5515 5515 5515 5514 5514 5514 5513 5512 5511 5510 5509 5508 5507 5506 5506 5505 5504 5504 5503 5502 5501 5501 5500 5500 5499 5500
5505 5505 5505 5505 5505 5505 5504 5504 5504 5505 5505 5505 5505 5505 5504 5504 5504 5504 5504 5503 5503 5502 5502 5501 5500 5499 5498 5497 5496 5494 5494 5493 5493 5491 5491 5490 5489 5488 5487 5487 5486 5486 5486
5494 5494 5494 5494 5494 5494 5493 5493 5493 5493 5493 5493 5493 5493 5493 5493 5493 5493 5493 5492 5491 5490 5489 5488 5487 5486 5485 5484 5483 5482 5481 5480 5479 5478 5478 5477 5476 5475 5474 5474 5473 5473 5472